FW9998 Weather Reports


time (UTC)temp
C
wind
direction
speed
KPH
gust
KPH
rain 1hr
cm
rain 24hr
cm
rain mn
cm
humidity
%
barometer
mb
20260507075815 11 97 3.2 3.2 0.00 0.03 0.03 90 1007.4
20260507075312 11 307 3.2 4.8 0.00 0.03 0.03 90 1007.1
20260507074809 12 124 1.6 3.2 0.00 0.03 0.03 90 1006.7
20260507074306 12 124 1.6 1.6 0.13 0.03 0.03 89 1007.1
20260507073803 12 154 0.0 1.6 0.13 0.03 0.03 88 1007.1
20260507073300 12 188 3.2 4.8 0.00 0.00 0.00 88 1007.1
20260507072757 12 215 3.2 4.8 0.00 0.00 0.00 88 1007.1
20260507072254 12 122 1.6 1.6 0.00 0.00 0.00 88 1006.1
20260507071752 12 326 1.6 3.2 0.00 0.00 0.00 88 1006.1
20260507071248 12 111 1.6 1.6 0.00 0.00 0.00 88 1006.4
20260507070745 12 73 1.6 3.2 0.00 0.00 0.00 88 1006.7
20260507070242 13 322 6.4 12.9 0.00 0.00 0.00 88 1006.7
20260507065738 13 336 3.2 3.2 0.00 0.00 0.00 87 1006.1
20260507065235 13 358 1.6 1.6 0.00 0.00 0.00 87 1006.1
20260507064733 13 103 1.6 1.6 0.00 0.00 0.00 87 1006.7
20260507064232 13 114 0.0 1.6 0.00 0.00 0.00 86 1006.4
20260507063728 13 12 0.0 1.6 0.00 0.00 0.00 86 1006.7
20260507063225 13 285 4.8 4.8 0.00 0.00 0.00 87 1006.4
20260507062722 13 72 3.2 3.2 0.00 0.00 0.00 86 1006.7
20260507062220 13 157 3.2 3.2 0.00 0.00 0.00 86 1006.7
20260507061717 13 61 3.2 4.8 0.00 0.00 0.00 86 1006.4
20260507061215 13 127 0.0 1.6 0.00 0.00 0.00 87 1006.4
20260507060713 13 16 1.6 1.6 0.00 0.00 0.00 87 1006.1
20260507060209 13 346 3.2 4.8 0.00 0.00 0.00 87 1006.7
20260507055705 13 37 3.2 6.4 0.00 0.00 0.00 87 1006.4
20260507055201 13 345 4.8 6.4 0.00 0.00 0.00 88 1006.7
20260507054657 13 148 3.2 4.8 0.00 0.00 0.00 89 1006.4
20260507054154 14 132 0.0 1.6 0.00 0.00 0.00 90 1006.7
20260507053652 14 107 0.0 0.0 0.00 0.00 0.00 91 1006.7
20260507053150 14 146 0.0 1.6 0.00 0.00 0.00 91 1006.7
20260507052648 15 126 0.0 0.0 0.00 0.00 0.00 90 1006.7
20260507052144 15 299 0.0 3.2 0.00 0.00 0.00 90 1006.7
20260507051642 15 176 0.0 0.0 0.00 0.00 0.00 90 1006.4
20260507051138 15 190 0.0 0.0 0.00 0.00 0.00 90 1006.4
20260507050635 15 11 0.0 0.0 0.00 0.00 0.00 90 1006.4
20260507050132 15 272 3.2 4.8 0.00 0.00 0.00 90 1006.4
20260507045629 15 117 0.0 1.6 0.00 0.00 0.00 91 1006.4
20260507045126 15 140 0.0 0.0 0.00 0.00 0.00 92 1006.4
20260507044622 15 99 4.8 6.4 0.00 0.00 0.00 93 1006.7
20260507044119 15 80 0.0 1.6 0.00 0.00 0.00 94 1006.4
20260507043615 15 172 3.2 4.8 0.00 0.00 0.00 94 1006.1
20260507043113 15 163 0.0 0.0 0.00 0.00 0.00 95 1006.4
20260507042609 15 144 0.0 0.0 0.00 0.00 0.00 95 1006.4
20260507042104 15 144 0.0 0.0 0.00 0.00 0.00 95 1006.4
20260507041601 15 266 6.4 9.7 0.00 0.00 0.00 96 1006.4
20260507041058 15 127 0.0 0.0 0.00 0.00 0.00 96 1006.4
20260507040555 15 229 0.0 0.0 0.00 0.00 0.00 96 1006.7
20260507040051 15 175 1.6 4.8 0.00 0.18 0.18 96 1006.7
20260507035547 15 278 8.0 11.3 0.00 0.18 0.18 95 1006.7
20260507035043 15 274 1.6 3.2 0.00 0.18 0.18 95 1006.7
20260507034540 15 265 3.2 3.2 0.00 0.18 0.18 95 1006.4
20260507034038 15 159 0.0 0.0 0.00 0.18 0.18 95 1006.4
20260507033536 15 140 0.0 0.0 0.00 0.18 0.18 94 1006.1
20260507033033 15 146 0.0 0.0 0.00 0.18 0.18 94 1006.4
20260507032530 15 170 0.0 0.0 0.00 0.18 0.18 94 1006.4
20260507032026 15 148 0.0 0.0 0.00 0.18 0.18 94 1006.4
20260507031522 15 199 3.2 3.2 0.00 0.18 0.18 94 1006.1
20260507031020 15 220 6.4 11.3 0.00 0.18 0.18 94 1006.1
20260507030516 15 189 3.2 4.8 0.00 0.18 0.18 94 1006.1
20260507030014 15 207 1.6 3.2 0.00 0.18 0.18 94 1006.1
20260507025511 15 152 4.8 6.4 0.00 0.18 0.18 94 1005.7
20260507025009 15 219 3.2 4.8 0.00 0.18 0.18 94 1005.7
20260507024506 15 208 3.2 3.2 0.00 0.18 0.18 94 1006.1
20260507024002 15 211 3.2 4.8 0.00 0.18 0.18 94 1006.1
20260507023458 15 216 3.2 4.8 0.00 0.18 0.18 94 1006.1
20260507022956 15 200 3.2 3.2 0.00 0.18 0.18 94 1006.1
20260507022453 15 172 3.2 3.2 0.00 0.18 0.18 94 1006.4
20260507021948 15 198 4.8 4.8 0.00 0.18 0.18 94 1006.1
20260507021444 15 174 8.0 9.7 0.00 0.18 0.18 94 1006.1
20260507020941 15 150 4.8 4.8 0.00 0.18 0.18 94 1006.1
20260507020438 15 133 3.2 4.8 0.00 0.18 0.18 94 1006.1
20260507015935 15 142 4.8 4.8 0.00 0.18 0.18 94 1005.7
20260507015434 15 198 6.4 6.4 0.00 0.18 0.18 94 1006.1
20260507014930 15 217 11.3 12.9 0.00 0.18 0.18 95 1006.1
20260507014427 15 206 6.4 11.3 0.00 0.18 0.18 95 1006.1
20260507013923 15 158 1.6 3.2 0.00 0.18 0.18 95 1006.4
20260507013420 15 196 4.8 6.4 0.00 0.18 0.18 95 1006.1
20260507012918 15 176 8.0 9.7 0.00 0.18 0.18 95 1006.1
20260507012414 15 94 4.8 6.4 0.00 0.18 0.18 95 1006.4
20260507011911 15 143 8.0 11.3 0.00 0.18 0.18 95 1006.4
20260507011408 15 178 6.4 9.7 0.00 0.18 0.18 95 1006.4
20260507010908 15 238 4.8 9.7 0.00 0.18 0.18 95 1006.4
20260507010403 14 190 9.7 11.3 0.00 0.18 0.18 95 1006.7
20260507005901 14 212 4.8 6.4 0.00 0.18 0.18 95 1006.7
20260507005357 14 139 6.4 9.7 0.00 0.18 0.18 95 1006.7
20260507004854 14 211 8.0 9.7 0.00 0.18 0.18 95 1006.7
20260507004351 14 175 1.6 3.2 0.00 0.18 0.18 95 1006.4
20260507003850 14 161 9.7 14.5 0.00 0.18 0.18 95 1006.4
20260507003344 14 147 3.2 4.8 0.00 0.18 0.18 96 1006.4
20260507002839 14 159 4.8 4.8 0.00 0.18 0.18 96 1006.7
20260507002335 14 180 6.4 6.4 0.00 0.18 0.18 96 1006.7
20260507001833 14 178 11.3 14.5 0.00 0.18 0.18 96 1006.4
20260507001329 14 180 4.8 6.4 0.00 0.18 0.18 96 1006.4
20260507000826 14 219 3.2 4.8 0.00 0.18 0.18 96 1006.1
20260507000321 14 124 8.0 12.9 0.00 0.18 0.18 96 1006.1
20260506235818 14 223 6.4 11.3 0.18 0.18 0.18 96 1006.1
20260506235314 15 224 4.8 9.7 0.18 0.18 0.18 95 1006.1
20260506234811 15 211 4.8 4.8 0.00 0.15 0.15 95 1006.4
20260506234309 15 164 11.3 14.5 0.00 0.15 0.15 95 1006.4
20260506233806 15 167 6.4 9.7 0.13 0.15 0.15 95 1006.1
20260506233302 15 191 8.0 16.1 0.13 0.15 0.15 95 1006.1
20260506232759 15 199 4.8 4.8 0.18 0.13 0.13 95 1006.1
20260506232254 15 195 4.8 4.8 0.18 0.13 0.13 95 1006.1
20260506231751 15 172 12.9 14.5 0.00 0.10 0.10 94 1006.1
20260506231250 15 190 12.9 16.1 0.00 0.10 0.10 94 1006.1
20260506230746 15 154 3.2 3.2 0.00 0.10 0.10 93 1006.1
20260506230243 15 227 8.0 9.7 0.00 0.10 0.10 93 1006.1
20260506225739 15 149 4.8 6.4 0.00 0.10 0.10 93 1006.1
20260506225237 15 217 8.0 9.7 0.00 0.10 0.10 93 1006.4
20260506224733 15 167 8.0 11.3 0.00 0.10 0.10 94 1006.1
20260506224230 15 150 6.4 9.7 0.00 0.10 0.10 94 1006.4
20260506223726 15 197 6.4 9.7 0.00 0.10 0.10 94 1006.1
20260506223222 15 233 8.0 12.9 0.00 0.10 0.10 94 1006.4
20260506222719 15 165 3.2 4.8 0.00 0.10 0.10 94 1006.4
20260506222214 15 166 6.4 9.7 0.00 0.10 0.10 94 1006.7
20260506221713 15 171 9.7 12.9 0.00 0.10 0.10 95 1006.7
20260506221211 15 199 6.4 6.4 0.00 0.10 0.10 94 1006.7
20260506220708 15 198 8.0 9.7 0.00 0.10 0.10 94 1006.7
20260506220202 16 197 8.0 12.9 0.00 0.10 0.10 94 1006.7
20260506215659 16 177 3.2 3.2 0.13 0.10 0.10 93 1006.7
20260506215154 16 189 6.4 9.7 0.00 0.08 0.08 93 1006.7
20260506214652 16 209 4.8 4.8 0.00 0.08 0.08 92 1006.7
20260506214149 16 149 8.0 12.9 0.18 0.08 0.08 91 1006.7
20260506213647 16 231 6.4 9.7 0.18 0.08 0.08 89 1007.1
20260506213144 16 189 4.8 6.4 0.00 0.05 0.05 88 1007.1
20260506212642 16 148 3.2 6.4 0.00 0.05 0.05 88 1006.7
20260506212136 16 148 9.7 14.5 0.00 0.05 0.05 87 1007.1
20260506211632 16 159 3.2 3.2 0.00 0.05 0.05 87 1006.7
20260506211129 16 200 9.7 12.9 0.00 0.05 0.05 87 1007.1
20260506210626 16 169 6.4 6.4 0.00 0.05 0.05 86 1007.1
20260506210122 16 222 11.3 16.1 0.00 0.05 0.05 87 1007.1
20260506205620 16 160 8.0 12.9 0.00 0.05 0.05 87 1007.1
20260506205114 16 223 11.3 16.1 0.00 0.05 0.05 86 1007.1
20260506204613 16 188 14.5 16.1 0.00 0.05 0.05 86 1007.4
20260506204109 16 218 6.4 9.7 0.00 0.05 0.05 87 1007.4
20260506203608 17 182 6.4 6.4 0.00 0.05 0.05 85 1007.4
20260506203104 17 165 11.3 14.5 0.00 0.05 0.05 83 1007.1
20260506202602 17 176 14.5 24.1 0.00 0.05 0.05 83 1007.1
20260506202058 17 241 3.2 6.4 0.00 0.05 0.05 82 1007.4
20260506201555 17 212 12.9 17.7 0.00 0.05 0.05 82 1007.1
20260506201052 17 197 12.9 20.9 0.00 0.05 0.05 83 1007.1
20260506200548 17 148 12.9 20.9 0.00 0.05 0.05 83 1007.1
20260506200045 17 188 8.0 11.3 0.13 0.05 0.05 82 1007.1
20260506195541 17 189 9.7 12.9 0.00 0.03 0.03 82 1006.7
20260506195038 17 173 9.7 12.9 0.00 0.03 0.03 82 1007.1
20260506194536 17 190 9.7 12.9 0.00 0.03 0.03 81 1007.1
20260506194032 18 232 9.7 12.9 0.18 0.03 0.03 80 1007.4
20260506193529 18 189 6.4 6.4 0.18 0.03 0.03 79 1007.4
20260506193026 18 92 6.4 11.3 0.00 0.00 0.00 77 1007.4
20260506192523 18 150 3.2 3.2 0.00 0.00 0.00 76 1007.4
20260506192019 18 285 8.0 12.9 0.00 0.00 0.00 75 1007.4
20260506191516 18 242 16.1 20.9 0.00 0.00 0.00 74 1007.1
20260506191012 19 231 3.2 4.8 0.00 0.00 0.00 72 1007.1
20260506190509 20 182 11.3 14.5 0.00 0.00 0.00 70 1007.1
20260506190006 20 205 12.9 17.7 0.00 0.00 0.00 67 1007.1
20260506185504 20 190 4.8 9.7 0.00 0.00 0.00 67 1007.4
20260506185000 20 189 9.7 12.9 0.00 0.00 0.00 65 1007.4
20260506184457 20 215 6.4 6.4 0.00 0.00 0.00 65 1007.4
20260506183954 20 197 6.4 6.4 0.00 0.00 0.00 64 1007.4
20260506183450 21 216 4.8 4.8 0.00 0.00 0.00 63 1007.4
20260506182947 21 130 12.9 16.1 0.00 0.00 0.00 62 1007.4
20260506182444 21 221 11.3 14.5 0.00 0.00 0.00 61 1007.4
20260506181941 21 156 12.9 16.1 0.00 0.00 0.00 61 1007.4
20260506181439 21 182 20.9 27.4 0.00 0.00 0.00 61 1007.4
20260506180936 21 176 12.9 16.1 0.00 0.00 0.00 60 1007.4
20260506180432 21 143 9.7 14.5 0.00 0.00 0.00 60 1007.8
20260506175929 22 199 14.5 17.7 0.00 0.00 0.00 60 1007.4
20260506175426 22 242 8.0 20.9 0.00 0.00 0.00 60 1007.8
20260506174922 22 210 19.3 22.5 0.00 0.00 0.00 60 1007.8
20260506174420 22 194 9.7 12.9 0.00 0.00 0.00 60 1007.8
20260506173917 22 209 9.7 12.9 0.00 0.00 0.00 60 1007.8
20260506173414 22 221 8.0 11.3 0.00 0.00 0.00 60 1007.8
20260506172911 22 220 12.9 24.1 0.00 0.00 0.00 61 1007.8
20260506172408 21 154 6.4 11.3 0.00 0.00 0.00 61 1008.1
20260506171905 21 246 9.7 11.3 0.00 0.00 0.00 61 1008.1
20260506171402 21 188 11.3 14.5 0.00 0.00 0.00 61 1008.1
20260506170900 21 212 9.7 14.5 0.00 0.00 0.00 62 1007.8
20260506170356 21 197 8.0 11.3 0.00 0.00 0.00 62 1007.8
20260506165855 21 186 11.3 14.5 0.00 0.00 0.00 62 1008.1
20260506165353 21 192 8.0 11.3 0.00 0.00 0.00 63 1008.1
20260506164849 21 253 17.7 20.9 0.00 0.00 0.00 61 1008.1
20260506164345 21 228 12.9 16.1 0.00 0.00 0.00 62 1008.1
20260506163844 21 229 12.9 16.1 0.00 0.00 0.00 62 1008.1
20260506163337 22 245 8.0 14.5 0.00 0.00 0.00 61 1008.1
20260506162833 22 210 4.8 6.4 0.00 0.00 0.00 61 1008.4
20260506162331 22 207 3.2 4.8 0.00 0.00 0.00 61 1008.4
20260506161823 22 169 11.3 16.1 0.00 0.00 0.00 61 1008.4
20260506161320 21 210 6.4 9.7 0.00 0.00 0.00 61 1008.4
20260506160818 21 199 9.7 12.9 0.00 0.00 0.00 62 1008.8
20260506160314 21 183 11.3 17.7 0.00 0.00 0.00 61 1008.8
20260506155813 22 106 4.8 9.7 0.00 0.00 0.00 61 1008.8
20260506155309 22 221 9.7 12.9 0.00 0.00 0.00 61 1009.1
20260506153421 22 223 8.0 11.3 0.00 0.00 0.00 60 1009.1
20260506152919 22 206 4.8 6.4 0.00 0.00 0.00 60 1009.4
20260506152415 22 216 14.5 17.7 0.00 0.00 0.00 59 1009.4
20260506151914 22 224 9.7 14.5 0.00 0.00 0.00 59 1009.4
20260506151411 22 116 9.7 12.9 0.00 0.00 0.00 59 1009.4
20260506150909 22 184 3.2 4.8 0.00 0.00 0.00 60 1009.4
20260506150404 22 173 6.4 6.4 0.00 0.00 0.00 59 1009.4
20260506145901 22 169 8.0 11.3 0.00 0.00 0.00 60 1009.4
20260506145358 21 123 14.5 17.7 0.00 0.00 0.00 62 1009.4
20260506144855 21 204 9.7 12.9 0.00 0.00 0.00 63 1009.4
20260506144351 21 265 6.4 9.7 0.00 0.00 0.00 63 1009.4
20260506143850 21 227 14.5 17.7 0.00 0.00 0.00 63 1009.4
20260506143347 21 174 12.9 17.7 0.00 0.00 0.00 63 1009.4
20260506142845 21 148 3.2 3.2 0.00 0.00 0.00 64 1009.4
20260506142343 21 137 8.0 11.3 0.00 0.00 0.00 64 1009.4
20260506141841 20 191 9.7 12.9 0.00 0.00 0.00 66 1009.1
20260506141339 20 188 12.9 17.7 0.00 0.00 0.00 66 1009.4
20260506140836 20 179 12.9 14.5 0.00 0.00 0.00 67 1009.4
20260506140333 20 145 8.0 12.9 0.00 0.00 0.00 68 1009.4
20260506135830 20 231 9.7 12.9 0.00 0.00 0.00 69 1009.8
20260506135327 19 222 6.4 6.4 0.00 0.00 0.00 70 1009.4
20260506134823 19 237 9.7 14.5 0.00 0.00 0.00 70 1009.4
20260506134319 19 167 3.2 3.2 0.00 0.00 0.00 71 1009.8
20260506133817 18 270 3.2 4.8 0.00 0.00 0.00 72 1010.1
20260506133313 18 211 12.9 20.9 0.00 0.00 0.00 72 1010.1
20260506132810 18 227 9.7 11.3 0.00 0.00 0.00 72 1010.1
20260506132307 18 187 9.7 14.5 0.00 0.00 0.00 73 1010.1
20260506131805 18 236 9.7 16.1 0.00 0.00 0.00 73 1010.1
20260506131301 18 183 14.5 16.1 0.00 0.00 0.00 73 1010.1
20260506130758 18 221 11.3 14.5 0.00 0.00 0.00 74 1010.1
20260506130255 18 176 9.7 16.1 0.00 0.00 0.00 74 1009.8
20260506125753 18 172 8.0 9.7 0.00 0.00 0.00 74 1010.1
20260506125250 18 246 8.0 11.3 0.00 0.00 0.00 74 1010.5
20260506124749 17 239 6.4 11.3 0.00 0.00 0.00 76 1010.1
20260506124246 17 188 3.2 9.7 0.00 0.00 0.00 76 1010.5
20260506123743 17 185 8.0 9.7 0.00 0.00 0.00 77 1010.5
20260506123242 17 218 9.7 14.5 0.00 0.00 0.00 77 1010.5
20260506122738 17 215 1.6 3.2 0.00 0.00 0.00 79 1010.5
20260506122235 17 160 8.0 14.5 0.00 0.00 0.00 78 1010.1
20260506121734 17 176 8.0 12.9 0.00 0.00 0.00 78 1010.1
20260506121230 17 218 4.8 9.7 0.00 0.00 0.00 79 1010.1
20260506120727 16 195 3.2 3.2 0.00 0.00 0.00 80 1010.1
20260506120225 16 174 4.8 6.4 0.00 0.00 0.00 80 1010.5
20260506115723 16 198 8.0 14.5 0.00 0.00 0.00 81 1010.5
20260506115221 16 198 8.0 11.3 0.00 0.00 0.00 81 1010.5
20260506114718 16 184 6.4 6.4 0.00 0.00 0.00 81 1010.5
20260506114216 16 112 6.4 11.3 0.00 0.00 0.00 81 1010.8
20260506113714 16 198 8.0 12.9 0.00 0.00 0.00 81 1010.8
20260506113211 16 144 3.2 6.4 0.00 0.00 0.00 81 1010.8
20260506112707 16 167 3.2 3.2 0.00 0.00 0.00 81 1010.8
20260506112205 16 228 6.4 12.9 0.00 0.00 0.00 81 1010.5
20260506111702 16 189 8.0 12.9 0.00 0.00 0.00 81 1010.5
20260506111200 16 175 4.8 6.4 0.00 0.00 0.00 81 1010.5
20260506110657 16 180 9.7 11.3 0.00 0.00 0.00 81 1010.5
20260506110155 16 227 4.8 6.4 0.00 0.00 0.00 80 1010.5
20260506105651 16 155 3.2 3.2 0.00 0.00 0.00 81 1010.8
20260506105148 16 177 6.4 9.7 0.00 0.00 0.00 82 1010.5
20260506104646 16 231 4.8 9.7 0.00 0.00 0.00 82 1010.5
20260506104143 16 194 6.4 6.4 0.00 0.00 0.00 82 1010.8
20260506103640 16 205 4.8 6.4 0.00 0.00 0.00 82 1010.5
20260506103137 16 196 8.0 9.7 0.00 0.00 0.00 82 1010.8
20260506102635 16 142 4.8 9.7 0.00 0.00 0.00 82 1010.8
20260506102133 16 148 4.8 9.7 0.00 0.00 0.00 82 1010.5
20260506101629 16 146 4.8 6.4 0.00 0.00 0.00 82 1010.8
20260506101126 16 156 8.0 11.3 0.00 0.00 0.00 82 1010.5
20260506100625 16 215 6.4 6.4 0.00 0.00 0.00 82 1010.8
20260506100122 16 154 4.8 4.8 0.00 0.00 0.00 82 1010.5
20260506095621 15 169 3.2 3.2 0.00 0.00 0.00 82 1010.5
20260506095117 15 213 6.4 6.4 0.00 0.00 0.00 82 1010.1
20260506094615 16 187 4.8 4.8 0.00 0.00 0.00 82 1010.5
20260506094112 16 162 9.7 14.5 0.00 0.00 0.00 81 1010.5
20260506093610 16 203 4.8 4.8 0.00 0.00 0.00 82 1010.5
20260506093107 16 202 6.4 6.4 0.00 0.00 0.00 81 1010.5
20260506092605 16 177 6.4 9.7 0.00 0.00 0.00 81 1010.5
20260506092102 16 188 4.8 4.8 0.00 0.00 0.00 81 1010.1
20260506091600 16 137 4.8 11.3 0.00 0.00 0.00 81 1010.5
20260506091057 16 151 11.3 12.9 0.00 0.00 0.00 81 1010.1
20260506090555 16 204 9.7 11.3 0.00 0.00 0.00 80 1010.5
20260506090051 16 227 11.3 17.7 0.00 0.00 0.00 80 1010.5
20260506085548 16 214 9.7 12.9 0.00 0.00 0.00 80 1010.5
20260506085044 16 212 6.4 6.4 0.00 0.00 0.00 80 1010.5
20260506084541 16 196 3.2 3.2 0.00 0.00 0.00 79 1010.5
20260506084037 16 165 9.7 12.9 0.00 0.00 0.00 79 1010.5
20260506083535 16 178 6.4 11.3 0.00 0.00 0.00 79 1010.5
20260506083032 16 229 9.7 12.9 0.00 0.00 0.00 79 1010.5
20260506082529 16 186 3.2 4.8 0.00 0.00 0.00 79 1010.1
20260506082025 16 198 6.4 6.4 0.00 0.00 0.00 78 1010.5
20260506081523 16 231 14.5 17.7 0.00 0.00 0.00 78 1010.5
20260506081020 16 243 11.3 14.5 0.00 0.00 0.00 78 1010.5
20260506080517 16 152 4.8 6.4 0.00 0.00 0.00 78 1010.5